Weather History for Litchfield, MN

Change the Weather History Date:

Thursday, September 4, 2014

  Actual Average Record
Temperature  
Mean Temperature 72 °F -  
Max Temperature 80 °F 77 °F 90 °F (1960)
Min Temperature 62 °F 54 °F 41 °F (1961)
Cooling Degree Days 7    
Growing Degree Days 22 (Base 50)    
Moisture  
Dew Point 70 °F    
Average Humidity 89    
Maximum Humidity 100    
Minimum Humidity 73    
Precipitation  
Precipitation 0.00 in - - ()
Sea Level Pressure  
Sea Level Pressure 29.73 in    
Wind  
Wind Speed 8 mph (SE)    
Max Wind Speed 14 mph    
Max Gust Speed 22 mph    
Visibility 10 miles    
Events Rain , Thunderstorm    
Averages and records for this station are not official NWS values.
T = Trace of Precipitation, MM = Missing Value Source: NWS Daily Summary

Daily Weather History Graph

Daily Weather History Graph

Search for Another Location

Airport:

Trip Planner

Search our weather history database for the weather conditions in past years. The results will help you decide how hot, cold, wet, or windy it might be!

Date:

Astronomy

Sep. 04, 2014 Rise Set
Actual Time 6:43 AM CDT 7:49 PM CDT
Civil Twilight 6:13 AM CDT 8:19 PM CDT
Nautical Twilight 5:37 AM CDT 8:55 PM CDT
Astronomical Twilight 4:59 AM CDT 9:33 PM CDT
Moon 4:36 PM CDT (9/4) 1:26 AM CDT (9/4)
Length of Visible Light 14h 06m
Length of Day
13h 06m
Waxing Gibbous, 74% of the Moon is Illuminated
Sep 4
Waxing Gibbous
Sep 8
Full
Sep 15
Last Quarter
Sep 24
New
Oct 1
First Quarter

Hourly Weather History & Observations

Time (CDT) Temp. Heat Index Dew Point Humidity Pressure Visibility Wind Dir Wind Speed Gust Speed Precip Events Conditions
12:13 AM 68.0 °F - 68.0 °F 100% 29.72 in 7.0 mi East 5.8 mph - N/A   Clear
12:32 AM 68.0 °F - 68.0 °F 100% 29.73 in 7.0 mi East 4.6 mph - N/A   Mostly Cloudy
12:53 AM 69.8 °F - 69.8 °F 100% 29.73 in 7.0 mi East 5.8 mph - N/A   Overcast
1:13 AM 69.8 °F - 69.8 °F 100% 29.71 in 10.0 mi East 8.1 mph - N/A   Overcast
1:32 AM 69.8 °F - 69.8 °F 100% 29.71 in 10.0 mi East 6.9 mph - N/A   Scattered Clouds
1:53 AM 69.8 °F - 69.8 °F 100% 29.71 in 10.0 mi ESE 6.9 mph - N/A   Clear
2:13 AM 69.8 °F - 69.8 °F 100% 29.70 in 10.0 mi ESE 8.1 mph - N/A   Scattered Clouds
2:32 AM 69.8 °F - 69.8 °F 100% 29.69 in 10.0 mi ESE 9.2 mph - N/A   Mostly Cloudy
2:53 AM 69.8 °F - 69.8 °F 100% 29.69 in 10.0 mi ESE 5.8 mph - N/A   Overcast
3:13 AM 69.8 °F - 69.8 °F 100% 29.68 in 10.0 mi ESE 8.1 mph - N/A   Overcast
3:32 AM 71.6 °F - 69.8 °F 94% 29.67 in 10.0 mi ESE 11.5 mph - N/A   Overcast
3:53 AM 71.6 °F - 71.6 °F 100% 29.65 in 10.0 mi SE 9.2 mph - N/A   Overcast
4:13 AM 71.6 °F - 71.6 °F 100% 29.63 in 10.0 mi SE 12.7 mph 18.4 mph N/A   Overcast
4:32 AM 71.6 °F - 71.6 °F 100% 29.61 in 10.0 mi SE 9.2 mph 17.3 mph N/A   Overcast
4:53 AM 71.6 °F - 71.6 °F 100% 29.59 in 10.0 mi SSE 10.4 mph - N/A   Mostly Cloudy
5:13 AM 71.6 °F - 71.6 °F 100% 29.62 in 10.0 mi SSE 6.9 mph - N/A   Overcast
5:32 AM 73.4 °F - 71.6 °F 94% 29.60 in 10.0 mi SE 9.2 mph - N/A   Overcast
5:53 AM 73.4 °F - 71.6 °F 94% 29.61 in 10.0 mi SSE 6.9 mph - N/A   Overcast
6:13 AM 73.4 °F - 71.6 °F 94% 29.62 in 10.0 mi SSE 4.6 mph - N/A   Overcast
6:32 AM 73.4 °F - 71.6 °F 94% 29.60 in 10.0 mi SSE 6.9 mph - N/A   Mostly Cloudy
7:12 AM 73.4 °F - 71.6 °F 94% 29.60 in 10.0 mi SSE 8.1 mph - N/A   Scattered Clouds
7:33 AM 73.4 °F - 71.6 °F 94% 29.58 in 7.0 mi SE 9.2 mph - N/A   Scattered Clouds
7:52 AM 73.4 °F - 73.4 °F 100% 29.67 in 10.0 mi Calm Calm - N/A   Mostly Cloudy
8:13 AM 73.4 °F - 73.4 °F 100% 29.69 in 10.0 mi Calm Calm - N/A   Mostly Cloudy
8:33 AM 73.4 °F - 71.6 °F 94% 29.67 in 7.0 mi East 3.5 mph - N/A   Scattered Clouds
8:52 AM 73.4 °F - 73.4 °F 100% 29.66 in 10.0 mi East 6.9 mph - N/A   Mostly Cloudy
9:13 AM 77.0 °F - 73.4 °F 89% 29.66 in 10.0 mi ENE 8.1 mph - N/A   Mostly Cloudy
9:33 AM 75.2 °F - 73.4 °F 94% 29.66 in 10.0 mi East 9.2 mph - N/A   Mostly Cloudy
9:52 AM 75.2 °F - 73.4 °F 94% 29.66 in 10.0 mi East 12.7 mph - N/A   Overcast
10:13 AM 73.4 °F - 71.6 °F 94% 29.65 in 10.0 mi East 12.7 mph 18.4 mph N/A   Overcast
10:33 AM 71.6 °F - 69.8 °F 94% 29.66 in 10.0 mi ENE 11.5 mph - N/A   Overcast
10:52 AM 71.6 °F - 69.8 °F 94% 29.68 in 10.0 mi East 9.2 mph - N/A   Overcast
11:13 AM 73.4 °F - 71.6 °F 94% 29.68 in 10.0 mi East 12.7 mph - N/A   Overcast
11:33 AM 73.4 °F - 71.6 °F 94% 29.67 in 10.0 mi East 13.8 mph - N/A   Overcast
11:52 AM 75.2 °F - 71.6 °F 89% 29.68 in 10.0 mi ESE 10.4 mph - N/A   Overcast
12:13 PM 75.2 °F - 73.4 °F 94% 29.68 in 10.0 mi East 8.1 mph - N/A   Mostly Cloudy
12:32 PM 78.8 °F - 73.4 °F 83% 29.66 in 10.0 mi ESE 9.2 mph - N/A   Scattered Clouds
12:53 PM 78.8 °F - 73.4 °F 83% 29.66 in 10.0 mi ESE 8.1 mph - N/A   Clear
1:12 PM 78.8 °F - 75.2 °F 89% 29.69 in 10.0 mi Calm Calm - N/A   Scattered Clouds
1:33 PM 78.8 °F - 75.2 °F 89% 29.71 in 10.0 mi Calm Calm - N/A   Mostly Cloudy
1:53 PM 78.8 °F - 73.4 °F 83% 29.68 in 10.0 mi Calm Calm - N/A Rain , Thunderstorm Light Thunderstorms and Rain
2:12 PM 80.6 °F 86.2 °F 75.2 °F 84% 29.70 in 10.0 mi WSW 6.9 mph - N/A Thunderstorm Thunderstorm
2:33 PM 80.6 °F 85.4 °F 73.4 °F 79% 29.72 in 10.0 mi WSW 11.5 mph 18.4 mph N/A Thunderstorm Scattered Clouds
2:53 PM 80.6 °F 85.4 °F 73.4 °F 79% 29.73 in 10.0 mi WSW 8.1 mph 18.4 mph N/A   Scattered Clouds
3:12 PM 80.6 °F 85.4 °F 73.4 °F 79% 29.72 in 10.0 mi WSW 6.9 mph - N/A Thunderstorm Clear
3:33 PM 80.6 °F 85.4 °F 73.4 °F 79% 29.71 in 10.0 mi WSW 5.8 mph - N/A   Clear
3:53 PM 78.8 °F - 75.2 °F 89% 29.70 in 10.0 mi West 4.6 mph - N/A   Mostly Cloudy
4:13 PM 80.6 °F 85.4 °F 73.4 °F 79% 29.70 in 10.0 mi WNW 10.4 mph - N/A   Mostly Cloudy
4:32 PM 80.6 °F 85.4 °F 73.4 °F 79% 29.71 in 10.0 mi WNW 13.8 mph - N/A   Scattered Clouds
4:53 PM 78.8 °F - 73.4 °F 83% 29.72 in 10.0 mi WNW 6.9 mph - N/A   Mostly Cloudy
5:13 PM 78.8 °F - 73.4 °F 83% 29.74 in 10.0 mi WNW 6.9 mph - N/A   Mostly Cloudy
5:32 PM 78.8 °F - 73.4 °F 83% 29.77 in 10.0 mi West 6.9 mph - N/A   Overcast
5:53 PM 78.8 °F - 71.6 °F 78% 29.78 in 10.0 mi WNW 10.4 mph - N/A   Overcast
6:13 PM 75.2 °F - 69.8 °F 83% 29.79 in 10.0 mi WNW 12.7 mph - N/A   Overcast
6:32 PM 75.2 °F - 69.8 °F 83% 29.80 in 10.0 mi WNW 11.5 mph 16.1 mph N/A   Overcast
6:52 PM 75.2 °F - 68.0 °F 78% 29.80 in 10.0 mi WNW 11.5 mph - N/A   Overcast
7:13 PM 73.4 °F - 69.8 °F 88% 29.81 in 10.0 mi WNW 5.8 mph - N/A   Mostly Cloudy
7:32 PM 73.4 °F - 69.8 °F 88% 29.82 in 10.0 mi West 5.8 mph - N/A   Mostly Cloudy
7:52 PM 73.4 °F - 69.8 °F 88% 29.82 in 10.0 mi WNW 6.9 mph - N/A   Scattered Clouds
8:13 PM 71.6 °F - 66.2 °F 83% 29.84 in 10.0 mi WNW 6.9 mph - N/A   Scattered Clouds
8:32 PM 71.6 °F - 66.2 °F 83% 29.85 in 10.0 mi WNW 8.1 mph - N/A   Scattered Clouds
9:13 PM 69.8 °F - 60.8 °F 73% 29.89 in 10.0 mi WNW 11.5 mph 21.9 mph N/A   Unknown
9:32 PM 69.8 °F - 62.6 °F 78% 29.90 in 10.0 mi WNW 10.4 mph 16.1 mph N/A   Unknown
9:52 PM 68.0 °F - 59.0 °F 73% 29.91 in 10.0 mi WNW 11.5 mph 18.4 mph N/A   Unknown
10:13 PM 66.2 °F - 59.0 °F 78% 29.92 in 10.0 mi WNW 10.4 mph 18.4 mph N/A   Unknown
10:32 PM 66.2 °F - 57.2 °F 73% 29.93 in 10.0 mi WNW 10.4 mph 17.3 mph N/A   Unknown
10:52 PM 64.4 °F - 57.2 °F 77% 29.94 in 10.0 mi WNW 11.5 mph 16.1 mph N/A   Unknown
11:13 PM 64.4 °F - 55.4 °F 73% 29.95 in 10.0 mi WNW 11.5 mph 17.3 mph N/A   Unknown
11:33 PM 64.4 °F - 55.4 °F 73% 29.95 in 10.0 mi WNW 9.2 mph 17.3 mph N/A   Unknown
11:53 PM 62.6 °F - 55.4 °F 77% 29.94 in 10.0 mi WNW 9.2 mph 16.1 mph N/A   Unknown